CW8097 Weather Reports


time (UTC)temp
C
wind
direction
speed
KPH
gust
KPH
rain 1hr
cm
rain 24hr
cm
rain mn
cm
humidity
%
barometer
mb
20260505160702 10 301 4.8 4.8 0.00 0.10 0.10 53 1012.6
20260505153205 10 274 4.8 11.3 0.00 0.10 0.10 59 1012.6
20260505152702 10 254 8.0 12.9 0.00 0.10 0.10 58 1012.4
20260505151703 9 292 3.2 9.7 0.00 0.10 0.10 56 1012.4
20260505151203 9 274 4.8 12.9 0.00 0.10 0.10 58 1012.4
20260505150703 10 247 6.4 12.9 0.00 0.10 0.10 62 1012.4
20260505140203 9 304 3.2 11.3 0.00 0.10 0.10 60 1011.6
20260505130203 7 235 1.6 3.2 0.00 0.10 0.10 80 1011.5
20260505123703 6 234 1.6 4.8 0.00 0.10 0.10 83 1011.9
20260505121703 5 214 0.0 0.0 0.00 0.10 0.10 84 1012.0
20260505120703 5 214 3.2 4.8 0.00 0.10 0.10 83 1012.1
20260505115203 5 202 0.0 0.0 0.00 0.10 0.10 86 1012.1
20260505114703 5 202 0.0 1.6 0.00 0.10 0.10 86 1012.1
20260505113703 4 202 1.6 3.2 0.00 0.10 0.10 85 1012.0
20260505113203 4 202 1.6 3.2 0.00 0.10 0.10 85 1011.8
20260505111204 5 202 0.0 0.0 0.00 0.10 0.10 85 1011.2
20260505110703 5 202 1.6 1.6 0.00 0.10 0.10 85 1011.2
20260505110203 5 202 1.6 1.6 0.00 0.10 0.10 84 1011.1
20260505101704 6 178 1.6 3.2 0.00 0.10 0.10 81 1010.5
20260505100203 6 178 3.2 4.8 0.00 0.10 0.10 77 1010.4
20260505094204 6 54 0.0 0.0 0.00 0.10 0.10 76 1009.2
20260505093703 6 54 0.0 0.0 0.00 0.10 0.10 78 1009.2
20260505091703 7 55 1.6 4.8 0.00 0.10 0.10 77 1009.4
20260505091203 7 76 3.2 4.8 0.00 0.10 0.10 75 1008.8
20260505090703 7 168 0.0 0.0 0.00 0.10 0.10 75 1010.0
20260505090203 7 168 0.0 0.0 0.00 0.10 0.10 76 1010.2
20260505085703 7 168 1.6 4.8 0.00 0.10 0.10 76 1010.7
20260505084703 7 121 0.0 4.8 0.03 0.10 0.10 73 1010.1
20260505084203 7 56 4.8 8.0 0.03 0.10 0.10 72 1008.4
20260505083704 7 60 6.4 9.7 0.05 0.10 0.10 70 1008.3
20260505082203 7 48 6.4 9.7 0.05 0.10 0.10 71 1008.0
20260505080203 7 307 0.0 3.2 0.08 0.10 0.10 71 1009.7
20260505075703 7 333 3.2 8.0 0.08 0.10 0.10 69 1009.2
20260505075203 7 46 4.8 8.0 0.10 0.10 0.10 67 1008.2
20260505074203 8 0 9.7 14.5 0.08 0.08 0.08 63 1008.2
20260505073204 8 350 8.0 16.1 0.05 0.05 0.05 60 1008.4
20260505072703 8 356 9.7 16.1 0.05 0.05 0.05 60 1008.1
20260505072203 8 4 14.5 22.5 0.05 0.05 0.05 60 1008.0
20260505070703 8 3 14.5 20.9 0.03 0.03 0.03 64 1007.6
20260505070203 8 355 11.3 22.5 0.03 0.03 0.03 64 1007.7
20260505065704 8 1 11.3 24.1 0.03 0.03 0.03 64 1007.6
20260505065203 9 13 14.5 25.7 0.00 0.00 0.00 60 1007.5
20260505064703 9 3 9.7 19.3 0.00 0.00 0.00 60 1008.0
20260505063203 10 351 11.3 22.5 0.00 0.00 0.00 51 1008.4
20260505062703 10 353 9.7 20.9 0.00 0.00 0.00 51 1008.2
20260505062203 10 334 11.3 20.9 0.00 0.00 0.00 49 1008.1
20260505061703 10 358 14.5 22.5 0.00 0.00 0.00 48 1007.5
20260505060703 10 5 19.3 29.0 0.00 0.00 0.00 46 1007.6
20260505055203 11 353 11.3 19.3 0.00 0.00 0.00 47 1007.9
20260505054203 11 8 11.3 19.3 0.00 0.00 0.00 47 1007.7
20260505053703 11 355 11.3 16.1 0.00 0.00 0.00 46 1007.4
20260505052703 11 346 11.3 19.3 0.00 0.00 0.00 45 1007.3
20260505052203 11 0 9.7 19.3 0.00 0.00 0.00 45 1007.2
20260505051703 11 5 11.3 19.3 0.00 0.00 0.00 45 1007.2
20260505051204 11 355 14.5 20.9 0.00 0.00 0.00 45 1007.1
20260505050703 11 3 12.9 19.3 0.00 0.00 0.00 45 1007.2
20260505041204 12 359 14.5 24.1 0.00 0.00 0.00 43 1006.9
20260505040703 12 0 11.3 20.9 0.00 0.00 0.00 42 1006.8
20260505035203 13 348 9.7 19.3 0.00 0.00 0.00 43 1006.5
20260505034203 13 330 8.0 16.1 0.00 0.00 0.00 44 1006.6
20260505033703 13 330 9.7 19.3 0.00 0.00 0.00 44 1006.6
20260505033203 13 317 9.7 19.3 0.00 0.00 0.00 44 1006.5
20260505032704 13 338 11.3 20.9 0.00 0.00 0.00 43 1006.5
20260505031703 13 334 14.5 24.1 0.00 0.00 0.00 42 1006.6
20260505023703 14 338 11.3 19.3 0.00 0.00 0.00 40 1005.8
20260505023203 14 342 11.3 19.3 0.00 0.00 0.00 41 1005.8
20260505021703 15 334 8.0 20.9 0.00 0.00 0.00 40 1005.3
20260505021203 15 339 11.3 19.3 0.00 0.00 0.00 38 1005.2
20260505015703 15 345 19.3 29.0 0.00 0.00 0.00 35 1004.6
20260505015203 16 351 8.0 19.3 0.00 0.00 0.00 35 1004.5
20260505014203 16 355 9.7 22.5 0.00 0.00 0.00 34 1004.4
20260505013203 16 335 12.9 22.5 0.00 0.00 0.00 33 1004.0
20260505011703 17 349 14.5 25.7 0.00 0.00 0.00 32 1003.5
20260505011203 17 352 17.7 25.7 0.00 0.00 0.00 32 1003.4
20260505010204 18 358 16.1 22.5 0.00 0.00 0.00 32 1003.3
20260505005703 18 349 19.3 27.4 0.00 0.00 0.00 31 1003.0
20260505005203 18 5 20.9 33.8 0.00 0.00 0.00 31 1002.9
20260505004204 19 336 16.1 32.2 0.00 0.00 0.00 32 1002.6
20260505002704 20 351 12.9 33.8 0.00 0.00 0.00 32 1002.5
20260505002204 20 355 14.5 32.2 0.00 0.00 0.00 32 1002.4
20260505001703 20 335 20.9 33.8 0.00 0.00 0.00 31 1002.4
20260504234704 22 344 17.7 27.4 0.00 0.00 0.00 30 1002.0
20260504233703 22 321 20.9 33.8 0.00 0.00 0.00 29 1001.8
20260504232704 22 342 14.5 29.0 0.00 0.00 0.00 29 1001.7
20260504231703 22 355 16.1 25.7 0.00 0.00 0.00 29 1001.4
20260504231204 22 333 19.3 37.0 0.00 0.00 0.00 29 1001.3
20260504230203 23 329 17.7 29.0 0.00 0.00 0.00 28 1001.3
20260504225704 23 2 19.3 27.4 0.00 0.00 0.00 29 1001.2
20260504224203 24 6 19.3 29.0 0.00 0.00 0.00 28 1001.0
20260504223703 24 359 19.3 32.2 0.00 0.00 0.00 28 1000.9
20260504222203 25 0 19.3 29.0 0.00 0.00 0.00 29 1000.6
20260504221704 25 339 16.1 27.4 0.00 0.00 0.00 32 1000.5
20260504220703 25 348 16.1 32.2 0.00 0.00 0.00 31 1000.4
20260504215704 25 353 14.5 27.4 0.00 0.00 0.00 31 1000.1
20260504214204 25 352 16.1 27.4 0.00 0.00 0.00 32 999.9
20260504213704 25 326 12.9 24.1 0.00 0.00 0.00 33 999.9
20260504212204 26 286 22.5 29.0 0.00 0.00 0.00 30 999.7
20260504211703 25 272 19.3 29.0 0.00 0.00 0.00 30 999.6
20260504211204 26 284 19.3 32.2 0.00 0.00 0.00 30 999.6
20260504205203 26 259 22.5 35.4 0.00 0.00 0.00 32 999.6
20260504204703 26 278 25.7 37.0 0.00 0.00 0.00 30 999.6
20260504204203 26 248 20.9 35.4 0.00 0.00 0.00 30 999.6
20260504203203 26 249 24.1 29.0 0.00 0.00 0.00 31 999.6
20260504202203 26 258 20.9 32.2 0.00 0.00 0.00 32 999.8
20260504201704 26 269 27.4 38.6 0.00 0.00 0.00 32 999.8
20260504200704 26 269 24.1 41.8 0.00 0.00 0.00 32 999.9
20260504200203 26 268 22.5 45.1 0.00 0.00 0.00 32 999.9
20260504195204 26 260 24.1 37.0 0.00 0.00 0.00 35 999.9
20260504194704 26 264 24.1 33.8 0.00 0.00 0.00 35 1000.0
20260504194204 26 233 22.5 32.2 0.00 0.00 0.00 35 999.9
20260504193704 25 264 20.9 32.2 0.00 0.00 0.00 36 1000.1
20260504193204 26 235 27.4 35.4 0.00 0.00 0.00 35 1000.0
20260504192203 25 264 20.9 27.4 0.00 0.00 0.00 37 1000.1
20260504191704 25 242 17.7 24.1 0.00 0.00 0.00 40 1000.3
20260504190203 25 254 20.9 25.7 0.00 0.00 0.00 38 1000.4
20260504185703 25 252 16.1 29.0 0.00 0.00 0.00 37 1000.5
20260504185204 25 240 22.5 37.0 0.00 0.00 0.00 37 1000.4
20260504183203 25 232 25.7 33.8 0.00 0.00 0.00 37 1000.6
20260504182703 25 272 20.9 32.2 0.00 0.00 0.00 35 1000.6
20260504182203 25 240 25.7 37.0 0.00 0.00 0.00 35 1000.5
20260504180204 25 226 22.5 32.2 0.00 0.00 0.00 35 1000.6
20260504175703 25 241 20.9 32.2 0.00 0.00 0.00 36 1000.6
20260504174703 25 272 20.9 32.2 0.00 0.00 0.00 36 1000.6
20260504174203 25 234 22.5 32.2 0.00 0.00 0.00 39 1000.6
20260504172204 25 245 17.7 27.4 0.00 0.00 0.00 39 1000.8
20260504171704 25 249 16.1 29.0 0.00 0.00 0.00 43 1000.9